Year,Month,Day,Hour,Minute,Value (Times are PST for windspeed in km/hr)
2009,07,12,00,00,4.50
2009,07,12,00,01,4.70
2009,07,12,00,02,5.20
2009,07,12,00,03,4.30
2009,07,12,00,04,4.60
2009,07,12,00,05,3.80
2009,07,12,00,06,5.00
2009,07,12,00,07,3.60
2009,07,12,00,08,4.00
2009,07,12,00,09,4.70
2009,07,12,00,10,4.90
2009,07,12,00,11,3.90
2009,07,12,00,12,3.80
2009,07,12,00,13,7.50
2009,07,12,00,14,5.10
2009,07,12,00,15,5.00
2009,07,12,00,16,3.20
2009,07,12,00,17,3.80
2009,07,12,00,18,3.80
2009,07,12,00,19,3.00
2009,07,12,00,20,1.10
2009,07,12,00,21,2.00
2009,07,12,00,22,3.10
2009,07,12,00,23,2.80
2009,07,12,00,24,1.80
2009,07,12,00,25,3.20
2009,07,12,00,26,0.70
2009,07,12,00,27,5.50
2009,07,12,00,28,7.10
2009,07,12,00,29,2.40
2009,07,12,00,30,2.00
2009,07,12,00,31,0.00
2009,07,12,00,32,0.00
2009,07,12,00,33,0.00
2009,07,12,00,34,0.90
2009,07,12,00,35,4.50
2009,07,12,00,36,2.60
2009,07,12,00,37,1.20
2009,07,12,00,38,3.50
2009,07,12,00,39,0.20
2009,07,12,00,40,1.40
2009,07,12,00,41,5.80
2009,07,12,00,42,2.40
2009,07,12,00,43,5.80
2009,07,12,00,44,7.30
2009,07,12,00,45,8.80
2009,07,12,00,46,11.50
2009,07,12,00,47,5.70
2009,07,12,00,48,7.00
2009,07,12,00,49,6.30
2009,07,12,00,50,6.80
2009,07,12,00,51,6.60
2009,07,12,00,52,3.30
2009,07,12,00,53,7.80
2009,07,12,00,54,4.60
2009,07,12,00,55,6.20
2009,07,12,00,56,7.00
2009,07,12,00,57,6.20
2009,07,12,00,58,4.30
2009,07,12,00,59,6.00
2009,07,12,01,00,8.20
2009,07,12,01,01,3.40
2009,07,12,01,02,0.70
2009,07,12,01,03,3.80
2009,07,12,01,04,1.50
2009,07,12,01,05,0.40
2009,07,12,01,06,3.90
2009,07,12,01,07,0.20
2009,07,12,01,08,0.00
2009,07,12,01,09,0.00
2009,07,12,01,10,0.00
2009,07,12,01,11,0.00
2009,07,12,01,12,0.50
2009,07,12,01,13,0.20
2009,07,12,01,14,0.40
2009,07,12,01,15,1.00
2009,07,12,01,16,1.70
2009,07,12,01,17,0.00
2009,07,12,01,18,1.60
2009,07,12,01,19,1.10
2009,07,12,01,20,3.10
2009,07,12,01,21,2.40
2009,07,12,01,22,3.40
2009,07,12,01,23,3.30
2009,07,12,01,24,4.30
2009,07,12,01,25,5.10
2009,07,12,01,26,3.80
2009,07,12,01,27,1.90
2009,07,12,01,28,5.70
2009,07,12,01,29,5.70
2009,07,12,01,30,6.10
2009,07,12,01,31,6.20
2009,07,12,01,32,5.60
2009,07,12,01,33,5.60
2009,07,12,01,34,5.70
2009,07,12,01,35,4.90
2009,07,12,01,36,5.60
2009,07,12,01,37,5.40
2009,07,12,01,38,5.50
2009,07,12,01,39,6.30
2009,07,12,01,40,7.30
2009,07,12,01,41,7.50
2009,07,12,01,42,7.50
2009,07,12,01,43,7.60
2009,07,12,01,44,7.90
2009,07,12,01,45,8.00
2009,07,12,01,46,7.90
2009,07,12,01,47,8.10
2009,07,12,01,48,6.80
2009,07,12,01,49,7.10
2009,07,12,01,50,7.10
2009,07,12,01,51,6.40
2009,07,12,01,52,5.50
2009,07,12,01,53,5.20
2009,07,12,01,54,4.20
2009,07,12,01,55,4.10
2009,07,12,01,56,5.00
2009,07,12,01,57,5.00
2009,07,12,01,58,3.40
2009,07,12,01,59,4.20
2009,07,12,02,00,3.30
2009,07,12,02,01,5.50
2009,07,12,02,02,6.60
2009,07,12,02,03,7.90
2009,07,12,02,04,5.90
2009,07,12,02,05,5.60
2009,07,12,02,06,7.10
2009,07,12,02,07,5.80
2009,07,12,02,08,5.80
2009,07,12,02,09,5.20
2009,07,12,02,10,5.10
2009,07,12,02,11,4.90
2009,07,12,02,12,5.20
2009,07,12,02,13,4.90
2009,07,12,02,14,4.40
2009,07,12,02,15,3.60
2009,07,12,02,16,2.20
2009,07,12,02,17,3.80
2009,07,12,02,18,2.40
2009,07,12,02,19,0.10
2009,07,12,02,20,1.10
2009,07,12,02,21,3.60
2009,07,12,02,22,2.00
2009,07,12,02,23,2.20
2009,07,12,02,24,2.40
2009,07,12,02,25,3.10
2009,07,12,02,26,0.90
2009,07,12,02,27,2.50
2009,07,12,02,28,3.20
2009,07,12,02,29,1.80
2009,07,12,02,30,0.20
2009,07,12,02,31,0.90
2009,07,12,02,32,1.10
2009,07,12,02,33,2.60
2009,07,12,02,34,3.00
2009,07,12,02,35,1.80
2009,07,12,02,36,1.00
2009,07,12,02,37,2.70
2009,07,12,02,38,2.00
2009,07,12,02,39,1.90
2009,07,12,02,40,0.90
2009,07,12,02,41,2.70
2009,07,12,02,42,2.70
2009,07,12,02,43,2.60
2009,07,12,02,44,2.80
2009,07,12,02,45,4.80
2009,07,12,02,46,5.10
2009,07,12,02,47,5.50
2009,07,12,02,48,5.10
2009,07,12,02,49,5.60
2009,07,12,02,50,5.70
2009,07,12,02,51,5.90
2009,07,12,02,52,4.90
2009,07,12,02,53,4.90
2009,07,12,02,54,4.90
2009,07,12,02,55,3.90
2009,07,12,02,56,4.00
2009,07,12,02,57,4.90
2009,07,12,02,58,3.30
2009,07,12,02,59,2.40
2009,07,12,03,00,1.80
2009,07,12,03,01,0.00
2009,07,12,03,02,0.00
2009,07,12,03,03,0.00
2009,07,12,03,04,0.00
2009,07,12,03,05,3.10
2009,07,12,03,06,5.90
2009,07,12,03,07,6.40
2009,07,12,03,08,6.30
2009,07,12,03,09,6.00
2009,07,12,03,10,5.10
2009,07,12,03,11,4.00
2009,07,12,03,12,5.20
2009,07,12,03,13,5.30
2009,07,12,03,14,4.70
2009,07,12,03,15,4.60
2009,07,12,03,16,4.90
2009,07,12,03,17,4.30
2009,07,12,03,18,3.50
2009,07,12,03,19,3.50
2009,07,12,03,20,3.40
2009,07,12,03,21,3.40
2009,07,12,03,22,1.80
2009,07,12,03,23,2.30
2009,07,12,03,24,1.80
2009,07,12,03,25,1.30
2009,07,12,03,26,2.70
2009,07,12,03,27,0.00
2009,07,12,03,28,0.00
2009,07,12,03,29,0.00
2009,07,12,03,30,0.00
2009,07,12,03,31,0.00
2009,07,12,03,32,0.30
2009,07,12,03,33,0.00
2009,07,12,03,34,0.00
2009,07,12,03,35,0.00
2009,07,12,03,36,0.00
2009,07,12,03,37,0.00
2009,07,12,03,38,0.00
2009,07,12,03,39,0.00
2009,07,12,03,40,0.00
2009,07,12,03,41,0.00
2009,07,12,03,42,0.00
2009,07,12,03,43,0.00
2009,07,12,03,44,0.00
2009,07,12,03,45,0.00
2009,07,12,03,46,0.00
2009,07,12,03,47,2.00
2009,07,12,03,48,3.50
2009,07,12,03,49,3.30
2009,07,12,03,50,4.80
2009,07,12,03,51,4.90
2009,07,12,03,52,4.70
2009,07,12,03,53,4.60
2009,07,12,03,54,5.30
2009,07,12,03,55,5.30
2009,07,12,03,56,6.80
2009,07,12,03,57,7.10
2009,07,12,03,58,5.20
2009,07,12,03,59,5.30
2009,07,12,04,00,5.00
2009,07,12,04,01,3.00
2009,07,12,04,02,0.60
2009,07,12,04,03,0.00
2009,07,12,04,04,0.00
2009,07,12,04,05,0.00
2009,07,12,04,06,0.00
2009,07,12,04,07,0.00
2009,07,12,04,08,0.00
2009,07,12,04,09,0.00
2009,07,12,04,10,0.00
2009,07,12,04,11,0.00
2009,07,12,04,12,0.00
2009,07,12,04,13,0.00
2009,07,12,04,14,0.00
2009,07,12,04,15,0.00
2009,07,12,04,16,2.80
2009,07,12,04,17,3.60
2009,07,12,04,18,3.10
2009,07,12,04,19,3.60
2009,07,12,04,20,1.00
2009,07,12,04,21,0.00
2009,07,12,04,22,0.00
2009,07,12,04,23,0.60
2009,07,12,04,24,0.40
2009,07,12,04,25,0.00
2009,07,12,04,26,0.00
2009,07,12,04,27,0.00
2009,07,12,04,28,0.00
2009,07,12,04,29,0.00
2009,07,12,04,30,0.00
2009,07,12,04,31,1.30
2009,07,12,04,32,0.00
2009,07,12,04,33,0.10
2009,07,12,04,34,0.00
2009,07,12,04,35,0.00
2009,07,12,04,36,0.00
2009,07,12,04,37,0.00
2009,07,12,04,38,0.20
2009,07,12,04,39,0.00
2009,07,12,04,40,0.00
2009,07,12,04,41,0.00
2009,07,12,04,42,0.00
2009,07,12,04,43,4.10
2009,07,12,04,44,5.00
2009,07,12,04,45,4.20
2009,07,12,04,46,5.50
2009,07,12,04,47,6.00
2009,07,12,04,48,7.90
2009,07,12,04,49,6.70
2009,07,12,04,50,6.30
2009,07,12,04,51,6.20
2009,07,12,04,52,4.70
2009,07,12,04,53,4.60
2009,07,12,04,54,3.60
2009,07,12,04,55,3.70
2009,07,12,04,56,4.70
2009,07,12,04,57,2.70
2009,07,12,04,58,2.30
2009,07,12,04,59,1.00
2009,07,12,05,00,0.00
2009,07,12,05,01,1.70
2009,07,12,05,02,1.10
2009,07,12,05,03,1.90
2009,07,12,05,04,1.70
2009,07,12,05,05,2.30
2009,07,12,05,06,1.70
2009,07,12,05,07,0.50
2009,07,12,05,08,1.10
2009,07,12,05,09,0.30
2009,07,12,05,10,0.40
2009,07,12,05,11,1.10
2009,07,12,05,12,0.80
2009,07,12,05,13,1.60
2009,07,12,05,14,2.60
2009,07,12,05,15,0.00
2009,07,12,05,16,0.10
2009,07,12,05,17,0.20
2009,07,12,05,18,0.00
2009,07,12,05,19,0.00
2009,07,12,05,20,0.00
2009,07,12,05,21,0.00
2009,07,12,05,22,0.10
2009,07,12,05,23,0.00
2009,07,12,05,24,0.20
2009,07,12,05,25,0.10
2009,07,12,05,26,1.00
2009,07,12,05,27,0.90
2009,07,12,05,28,1.20
2009,07,12,05,29,0.10
2009,07,12,05,30,0.50
2009,07,12,05,31,1.40
2009,07,12,05,32,0.50
2009,07,12,05,33,3.70
2009,07,12,05,34,3.00
2009,07,12,05,35,3.70
2009,07,12,05,36,3.00
2009,07,12,05,37,3.40
2009,07,12,05,38,4.40
2009,07,12,05,39,4.60
2009,07,12,05,40,5.40
2009,07,12,05,41,5.20
2009,07,12,05,42,5.00
2009,07,12,05,43,4.10
2009,07,12,05,44,3.20
2009,07,12,05,45,2.80
2009,07,12,05,46,2.40
2009,07,12,05,47,1.80
2009,07,12,05,48,2.20
2009,07,12,05,49,4.50
2009,07,12,05,50,5.10
2009,07,12,05,51,6.50
2009,07,12,05,52,6.50
2009,07,12,05,53,6.80
2009,07,12,05,54,6.00
2009,07,12,05,55,6.00
2009,07,12,05,56,4.80
2009,07,12,05,57,3.90
2009,07,12,05,58,4.10
2009,07,12,05,59,2.60
2009,07,12,06,00,0.10
2009,07,12,06,01,0.00
2009,07,12,06,02,0.00
2009,07,12,06,03,0.00
2009,07,12,06,04,0.00
2009,07,12,06,05,0.00
2009,07,12,06,06,0.00
2009,07,12,06,07,0.00
2009,07,12,06,08,0.30
2009,07,12,06,09,1.60
2009,07,12,06,10,0.10
2009,07,12,06,11,0.00
2009,07,12,06,12,0.00
2009,07,12,06,13,2.80
2009,07,12,06,14,3.30
2009,07,12,06,15,3.00
2009,07,12,06,16,0.90
2009,07,12,06,17,0.00
2009,07,12,06,18,0.00
2009,07,12,06,19,0.00
2009,07,12,06,20,0.00
2009,07,12,06,21,0.00
2009,07,12,06,22,0.00
2009,07,12,06,23,0.00
2009,07,12,06,24,0.00
2009,07,12,06,25,1.20
2009,07,12,06,26,2.10
2009,07,12,06,27,1.80
2009,07,12,06,28,3.00
2009,07,12,06,29,3.50
2009,07,12,06,30,3.60
2009,07,12,06,31,3.60
2009,07,12,06,32,0.20
2009,07,12,06,33,0.00
2009,07,12,06,34,0.00
2009,07,12,06,35,0.00
2009,07,12,06,36,0.00
2009,07,12,06,37,0.00
2009,07,12,06,38,0.00
2009,07,12,06,39,0.00
2009,07,12,06,40,0.00
2009,07,12,06,41,0.00
2009,07,12,06,42,0.00
2009,07,12,06,43,0.00
2009,07,12,06,44,0.00
2009,07,12,06,45,0.00
2009,07,12,06,46,0.00
2009,07,12,06,47,0.00
2009,07,12,06,48,0.00
2009,07,12,06,49,0.00
2009,07,12,06,50,0.00
2009,07,12,06,51,0.00
2009,07,12,06,52,0.00
2009,07,12,06,53,0.00
2009,07,12,06,54,0.00
2009,07,12,06,55,0.00
2009,07,12,06,56,0.00
2009,07,12,06,57,0.00
2009,07,12,06,58,0.00
2009,07,12,06,59,0.00
2009,07,12,07,00,0.00
2009,07,12,07,01,0.00
2009,07,12,07,02,0.00
2009,07,12,07,03,0.00
2009,07,12,07,04,0.00
2009,07,12,07,05,0.00
2009,07,12,07,06,0.00
2009,07,12,07,07,0.00
2009,07,12,07,08,0.00
2009,07,12,07,09,0.00
2009,07,12,07,10,0.00
2009,07,12,07,11,0.00
2009,07,12,07,12,0.00
2009,07,12,07,13,0.00
2009,07,12,07,14,0.00
2009,07,12,07,15,0.00
2009,07,12,07,16,0.00
2009,07,12,07,17,0.00
2009,07,12,07,18,0.00
2009,07,12,07,19,0.00
2009,07,12,07,20,0.00
2009,07,12,07,21,0.00
2009,07,12,07,22,0.00
2009,07,12,07,23,0.00
2009,07,12,07,24,0.00
2009,07,12,07,25,0.00
2009,07,12,07,26,0.00
2009,07,12,07,27,0.00
2009,07,12,07,28,0.00
2009,07,12,07,29,0.00
2009,07,12,07,30,0.00
2009,07,12,07,31,0.00
2009,07,12,07,32,3.00
2009,07,12,07,33,4.30
2009,07,12,07,34,4.80
2009,07,12,07,35,4.60
2009,07,12,07,36,5.80
2009,07,12,07,37,5.10
2009,07,12,07,38,4.00
2009,07,12,07,39,3.10
2009,07,12,07,40,2.60
2009,07,12,07,41,3.70
2009,07,12,07,42,3.10
2009,07,12,07,43,4.20
2009,07,12,07,44,0.40
2009,07,12,07,45,0.10
2009,07,12,07,46,1.70
2009,07,12,07,47,0.00
2009,07,12,07,48,0.60
2009,07,12,07,49,0.10
2009,07,12,07,50,0.00
2009,07,12,07,51,3.10
2009,07,12,07,52,4.50
2009,07,12,07,53,4.70
2009,07,12,07,54,6.30
2009,07,12,07,55,6.60
2009,07,12,07,56,1.90
2009,07,12,07,57,3.90
2009,07,12,07,58,5.40
2009,07,12,07,59,3.60
2009,07,12,08,00,6.60
2009,07,12,08,01,3.00
2009,07,12,08,02,5.10
2009,07,12,08,03,5.20
2009,07,12,08,04,2.90
2009,07,12,08,05,3.30
2009,07,12,08,06,2.80
2009,07,12,08,07,4.60
2009,07,12,08,08,2.30
2009,07,12,08,09,4.50
2009,07,12,08,10,5.00
2009,07,12,08,11,6.30
2009,07,12,08,12,4.70
2009,07,12,08,13,5.90
2009,07,12,08,14,4.10
2009,07,12,08,15,2.90
2009,07,12,08,16,4.70
2009,07,12,08,17,7.20
2009,07,12,08,18,7.30
2009,07,12,08,19,6.80
2009,07,12,08,20,6.70
2009,07,12,08,21,4.70
2009,07,12,08,22,4.80
2009,07,12,08,23,4.40
2009,07,12,08,24,3.80
2009,07,12,08,25,3.90
2009,07,12,08,26,4.60
2009,07,12,08,27,4.10
2009,07,12,08,28,4.50
2009,07,12,08,29,5.30
2009,07,12,08,30,4.30
2009,07,12,08,31,3.80
2009,07,12,08,32,5.60
2009,07,12,08,33,4.40
2009,07,12,08,34,4.30
2009,07,12,08,35,4.80
2009,07,12,08,36,1.00
2009,07,12,08,37,3.60
2009,07,12,08,38,3.90
2009,07,12,08,39,2.70
2009,07,12,08,40,4.70
2009,07,12,08,41,3.30
2009,07,12,08,42,4.10
2009,07,12,08,43,3.70
2009,07,12,08,44,5.40
2009,07,12,08,45,5.40
2009,07,12,08,46,4.50
2009,07,12,08,47,3.30
2009,07,12,08,48,7.90
2009,07,12,08,49,6.00
2009,07,12,08,50,4.90
2009,07,12,08,51,7.10
2009,07,12,08,52,6.30
2009,07,12,08,53,4.00
2009,07,12,08,54,6.00
2009,07,12,08,55,6.40
2009,07,12,08,56,6.00
2009,07,12,08,57,3.70
2009,07,12,08,58,4.30
2009,07,12,08,59,4.80
2009,07,12,09,00,0.90
2009,07,12,09,01,1.10
2009,07,12,09,02,4.30
2009,07,12,09,03,2.70
2009,07,12,09,04,3.40
2009,07,12,09,05,3.30
2009,07,12,09,06,6.40
2009,07,12,09,07,6.50
2009,07,12,09,08,5.90
2009,07,12,09,09,6.70
2009,07,12,09,10,4.50
2009,07,12,09,11,7.30
2009,07,12,09,12,5.60
2009,07,12,09,13,7.40
2009,07,12,09,14,6.10
2009,07,12,09,15,5.60
2009,07,12,09,16,7.10
2009,07,12,09,17,7.30
2009,07,12,09,18,5.60
2009,07,12,09,19,3.60
2009,07,12,09,20,6.50
2009,07,12,09,21,7.70
2009,07,12,09,22,8.30
2009,07,12,09,23,8.90
2009,07,12,09,24,8.50
2009,07,12,09,25,6.50
2009,07,12,09,26,8.50
2009,07,12,09,27,8.00
2009,07,12,09,28,5.20
2009,07,12,09,29,4.10
2009,07,12,09,30,5.60
2009,07,12,09,31,8.20
2009,07,12,09,32,6.60
2009,07,12,09,33,5.80
2009,07,12,09,34,5.10
2009,07,12,09,35,6.60
2009,07,12,09,36,8.60
2009,07,12,09,37,8.50
2009,07,12,09,38,5.10
2009,07,12,09,39,6.80
2009,07,12,09,40,8.00
2009,07,12,09,41,6.30
2009,07,12,09,42,7.40
2009,07,12,09,43,4.70
2009,07,12,09,44,6.80
2009,07,12,09,45,7.00
2009,07,12,09,46,6.20
2009,07,12,09,47,6.20
2009,07,12,09,48,7.40
2009,07,12,09,49,6.20
2009,07,12,09,50,6.30
2009,07,12,09,51,8.00
2009,07,12,09,52,5.30
2009,07,12,09,53,5.40
2009,07,12,09,54,7.50
2009,07,12,09,55,6.50
2009,07,12,09,56,7.50
2009,07,12,09,57,8.30
2009,07,12,09,58,7.30
2009,07,12,09,59,7.20
2009,07,12,10,00,8.60
2009,07,12,10,01,8.90
2009,07,12,10,02,8.60
2009,07,12,10,03,9.20
2009,07,12,10,04,8.60
2009,07,12,10,05,8.10
2009,07,12,10,06,7.20
2009,07,12,10,07,5.20
2009,07,12,10,08,6.20
2009,07,12,10,09,8.40
2009,07,12,10,10,9.00
2009,07,12,10,11,8.40
2009,07,12,10,12,9.10
2009,07,12,10,13,6.10
2009,07,12,10,14,7.00
2009,07,12,10,15,9.50
2009,07,12,10,16,8.80
2009,07,12,10,17,7.70
2009,07,12,10,18,5.00
2009,07,12,10,19,8.00
2009,07,12,10,20,8.80
2009,07,12,10,21,5.80
2009,07,12,10,22,6.00
2009,07,12,10,23,5.60
2009,07,12,10,24,5.60
2009,07,12,10,25,5.10
2009,07,12,10,26,6.40
2009,07,12,10,27,5.20
2009,07,12,10,28,7.50
2009,07,12,10,29,8.80
2009,07,12,10,30,7.50
2009,07,12,10,31,9.30
2009,07,12,10,32,7.20
2009,07,12,10,33,6.70
2009,07,12,10,34,5.70
2009,07,12,10,35,4.50
2009,07,12,10,36,6.80
2009,07,12,10,37,4.90
2009,07,12,10,38,7.00
2009,07,12,10,39,5.80
2009,07,12,10,40,3.70
2009,07,12,10,41,6.30
2009,07,12,10,42,7.60
2009,07,12,10,43,6.40
2009,07,12,10,44,5.10
2009,07,12,10,45,4.80
2009,07,12,10,46,6.50
2009,07,12,10,47,2.40
2009,07,12,10,48,4.20
2009,07,12,10,49,3.80
2009,07,12,10,50,3.40
2009,07,12,10,51,6.40
2009,07,12,10,52,8.40
2009,07,12,10,53,7.40
2009,07,12,10,54,6.10
2009,07,12,10,55,6.70
2009,07,12,10,56,5.80
2009,07,12,10,57,6.90
2009,07,12,10,58,5.60
2009,07,12,10,59,8.80
2009,07,12,11,00,7.90
2009,07,12,11,01,7.50
2009,07,12,11,02,5.20
2009,07,12,11,03,7.40
2009,07,12,11,04,8.10
2009,07,12,11,05,4.50
2009,07,12,11,06,6.80
2009,07,12,11,07,6.90
2009,07,12,11,08,9.70
2009,07,12,11,09,5.30
2009,07,12,11,10,5.50
2009,07,12,11,11,8.20
2009,07,12,11,12,5.20
2009,07,12,11,13,5.00
2009,07,12,11,14,7.90
2009,07,12,11,15,6.70
2009,07,12,11,16,5.90
2009,07,12,11,17,9.40
2009,07,12,11,18,4.80
2009,07,12,11,19,3.70
2009,07,12,11,20,6.20
2009,07,12,11,21,6.10
2009,07,12,11,22,7.20
2009,07,12,11,23,5.30
2009,07,12,11,24,6.30
2009,07,12,11,25,5.50
2009,07,12,11,26,6.50
2009,07,12,11,27,6.50
2009,07,12,11,28,6.60
2009,07,12,11,29,7.80
2009,07,12,11,30,10.10
2009,07,12,11,31,6.40
2009,07,12,11,32,6.70
2009,07,12,11,33,7.90
2009,07,12,11,34,6.80
2009,07,12,11,35,6.40
2009,07,12,11,36,8.30
2009,07,12,11,37,9.00
2009,07,12,11,38,8.20
2009,07,12,11,39,6.50
2009,07,12,11,40,9.20
2009,07,12,11,41,8.50
2009,07,12,11,42,8.40
2009,07,12,11,43,6.60
2009,07,12,11,44,5.00
2009,07,12,11,45,7.80
2009,07,12,11,46,7.30
2009,07,12,11,47,7.40
2009,07,12,11,48,10.20
2009,07,12,11,49,5.40
2009,07,12,11,50,4.90
2009,07,12,11,51,8.40
2009,07,12,11,52,8.90
2009,07,12,11,53,7.20
2009,07,12,11,54,10.00
2009,07,12,11,55,9.40
2009,07,12,11,56,11.20
2009,07,12,11,57,11.50
2009,07,12,11,58,7.90
2009,07,12,11,59,12.60
2009,07,12,12,00,12.00
2009,07,12,12,01,7.60
2009,07,12,12,02,9.10
2009,07,12,12,03,12.10
2009,07,12,12,04,10.70
2009,07,12,12,05,9.00
2009,07,12,12,06,10.00
2009,07,12,12,07,12.60
2009,07,12,12,08,11.00
2009,07,12,12,09,6.20
2009,07,12,12,10,13.00
2009,07,12,12,11,8.50
2009,07,12,12,12,12.90
2009,07,12,12,13,16.80
2009,07,12,12,14,12.60
2009,07,12,12,15,6.20
2009,07,12,12,16,10.10
2009,07,12,12,17,6.00
2009,07,12,12,18,12.20
2009,07,12,12,19,7.60
2009,07,12,12,20,6.10
2009,07,12,12,21,8.70
2009,07,12,12,22,10.70
2009,07,12,12,23,12.20
2009,07,12,12,24,10.10
2009,07,12,12,25,10.60
2009,07,12,12,26,15.30
2009,07,12,12,27,16.30
2009,07,12,12,28,11.70
2009,07,12,12,29,19.70
2009,07,12,12,30,17.50
2009,07,12,12,31,17.10
2009,07,12,12,32,14.60
2009,07,12,12,33,15.60
2009,07,12,12,34,17.70
2009,07,12,12,35,11.90
2009,07,12,12,36,15.40
2009,07,12,12,37,12.10
2009,07,12,12,38,21.30
2009,07,12,12,39,16.60
2009,07,12,12,40,20.90
2009,07,12,12,41,20.90
2009,07,12,12,42,17.70
2009,07,12,12,43,23.00
2009,07,12,12,44,16.90
2009,07,12,12,45,18.80
2009,07,12,12,46,18.20
2009,07,12,12,47,10.00
2009,07,12,12,48,14.10
2009,07,12,12,49,15.20
2009,07,12,12,50,14.50
2009,07,12,12,51,15.40
2009,07,12,12,52,9.00
2009,07,12,12,53,16.80
2009,07,12,12,54,12.40
2009,07,12,12,55,14.40
2009,07,12,12,56,17.40
2009,07,12,12,57,16.90
2009,07,12,12,58,16.50
2009,07,12,12,59,14.90
2009,07,12,13,00,13.50
2009,07,12,13,01,14.00
2009,07,12,13,02,10.50
2009,07,12,13,03,13.10
2009,07,12,13,04,9.00
2009,07,12,13,05,10.30
2009,07,12,13,06,16.30
2009,07,12,13,07,16.00
2009,07,12,13,08,16.00
2009,07,12,13,09,14.60
2009,07,12,13,10,11.60
2009,07,12,13,11,13.70
2009,07,12,13,12,15.70
2009,07,12,13,13,14.80
2009,07,12,13,14,11.60
2009,07,12,13,15,12.40
2009,07,12,13,16,19.00
2009,07,12,13,17,10.60
2009,07,12,13,18,7.00
2009,07,12,13,19,11.90
2009,07,12,13,20,15.20
2009,07,12,13,21,6.10
2009,07,12,13,22,9.90
2009,07,12,13,23,17.00
2009,07,12,13,24,13.60
2009,07,12,13,25,15.70
2009,07,12,13,26,15.50
2009,07,12,13,27,14.80
2009,07,12,13,28,14.60
2009,07,12,13,29,15.60
2009,07,12,13,30,14.60
2009,07,12,13,31,18.40
2009,07,12,13,32,17.40
2009,07,12,13,33,16.60
2009,07,12,13,34,15.50
2009,07,12,13,35,16.00
2009,07,12,13,36,16.10
2009,07,12,13,37,14.20
2009,07,12,13,38,19.60
2009,07,12,13,39,21.20
2009,07,12,13,40,15.80
2009,07,12,13,41,14.60
2009,07,12,13,42,20.10
2009,07,12,13,43,19.10
2009,07,12,13,44,18.20
2009,07,12,13,45,21.10
2009,07,12,13,46,18.80
2009,07,12,13,47,17.60
2009,07,12,13,48,14.50
2009,07,12,13,49,15.70
2009,07,12,13,50,14.70
2009,07,12,13,51,9.30
2009,07,12,13,52,19.70
2009,07,12,13,53,15.40
2009,07,12,13,54,15.40
2009,07,12,13,55,14.80
2009,07,12,13,56,13.10
2009,07,12,13,57,12.90
2009,07,12,13,58,18.90
2009,07,12,13,59,19.20
2009,07,12,14,00,20.40
2009,07,12,14,01,17.30
2009,07,12,14,02,15.00
2009,07,12,14,03,26.70
2009,07,12,14,04,27.30
2009,07,12,14,05,23.00
2009,07,12,14,06,17.70
2009,07,12,14,07,23.10
2009,07,12,14,08,21.00
2009,07,12,14,09,23.20
2009,07,12,14,10,20.20
2009,07,12,14,11,25.00
2009,07,12,14,12,21.40
2009,07,12,14,13,23.00
2009,07,12,14,14,20.00
2009,07,12,14,15,22.60
2009,07,12,14,16,20.00
2009,07,12,14,17,22.40
2009,07,12,14,18,15.60
2009,07,12,14,19,24.50
2009,07,12,14,20,22.80
2009,07,12,14,21,17.20
2009,07,12,14,22,20.20
2009,07,12,14,23,23.10
2009,07,12,14,24,21.80
2009,07,12,14,25,20.70
2009,07,12,14,26,22.50
2009,07,12,14,27,17.60
2009,07,12,14,28,21.60
2009,07,12,14,29,18.70
2009,07,12,14,30,19.10
2009,07,12,14,31,17.60
2009,07,12,14,32,22.10
2009,07,12,14,33,19.90
2009,07,12,14,34,15.90
2009,07,12,14,35,8.80
2009,07,12,14,36,13.00
2009,07,12,14,37,17.00
2009,07,12,14,38,17.70
2009,07,12,14,39,20.20
2009,07,12,14,40,14.10
2009,07,12,14,41,12.50
2009,07,12,14,42,12.00
2009,07,12,14,43,19.70
2009,07,12,14,44,17.20
2009,07,12,14,45,25.30
2009,07,12,14,46,24.90
2009,07,12,14,47,23.20
2009,07,12,14,48,22.80
2009,07,12,14,49,20.40
2009,07,12,14,50,25.10
2009,07,12,14,51,22.00
2009,07,12,14,52,22.70
2009,07,12,14,53,22.20
2009,07,12,14,54,25.00
2009,07,12,14,55,25.30
2009,07,12,14,56,25.20
2009,07,12,14,57,25.30
2009,07,12,14,58,20.80
2009,07,12,14,59,20.60
2009,07,12,15,00,18.40
2009,07,12,15,01,27.30
2009,07,12,15,02,25.60
2009,07,12,15,03,19.90
2009,07,12,15,04,24.00
2009,07,12,15,05,19.40
2009,07,12,15,06,23.80
2009,07,12,15,07,21.60
2009,07,12,15,08,22.40
2009,07,12,15,09,26.20
2009,07,12,15,10,27.50
2009,07,12,15,11,21.80
2009,07,12,15,12,18.60
2009,07,12,15,13,18.90
2009,07,12,15,14,24.00
2009,07,12,15,15,24.10
2009,07,12,15,16,22.80
2009,07,12,15,17,17.70
2009,07,12,15,18,18.30
2009,07,12,15,19,17.10
2009,07,12,15,20,25.90
2009,07,12,15,21,22.50
2009,07,12,15,22,20.50
2009,07,12,15,23,22.00
2009,07,12,15,24,15.90
2009,07,12,15,25,14.00
2009,07,12,15,26,19.50
2009,07,12,15,27,18.90
2009,07,12,15,28,19.10
2009,07,12,15,29,22.00
2009,07,12,15,30,25.20
2009,07,12,15,31,24.40
2009,07,12,15,32,23.80
2009,07,12,15,33,20.70
2009,07,12,15,34,18.20
2009,07,12,15,35,20.30
2009,07,12,15,36,21.10
2009,07,12,15,37,22.40
2009,07,12,15,38,14.20
2009,07,12,15,39,25.90
2009,07,12,15,40,26.50
2009,07,12,15,41,25.10
2009,07,12,15,42,18.70
2009,07,12,15,43,20.60
2009,07,12,15,44,28.30
2009,07,12,15,45,19.90
2009,07,12,15,46,17.20
2009,07,12,15,47,22.30
2009,07,12,15,48,21.70
2009,07,12,15,49,19.20
2009,07,12,15,50,28.60
2009,07,12,15,51,26.20
2009,07,12,15,52,29.00
2009,07,12,15,53,29.80
2009,07,12,15,54,22.70
2009,07,12,15,55,25.90
2009,07,12,15,56,25.40
2009,07,12,15,57,25.50
2009,07,12,15,58,26.00
2009,07,12,15,59,23.20
2009,07,12,16,00,22.90
2009,07,12,16,01,18.20
2009,07,12,16,02,17.60
2009,07,12,16,03,17.50
2009,07,12,16,04,19.10
2009,07,12,16,05,18.30
2009,07,12,16,06,24.40
2009,07,12,16,07,23.00
2009,07,12,16,08,22.00
2009,07,12,16,09,22.90
2009,07,12,16,10,22.20
2009,07,12,16,11,21.30
2009,07,12,16,12,21.60
2009,07,12,16,13,22.80
2009,07,12,16,14,25.60
2009,07,12,16,15,19.40
2009,07,12,16,16,18.50
2009,07,12,16,17,21.00
2009,07,12,16,18,24.20
2009,07,12,16,19,21.10
2009,07,12,16,20,23.10
2009,07,12,16,21,18.90
2009,07,12,16,22,20.50
2009,07,12,16,23,16.80
2009,07,12,16,24,20.20
2009,07,12,16,25,23.60
2009,07,12,16,26,21.30
2009,07,12,16,27,23.50
2009,07,12,16,28,19.50
2009,07,12,16,29,19.20
2009,07,12,16,30,18.80
2009,07,12,16,31,23.90
2009,07,12,16,32,24.00
2009,07,12,16,33,21.30
2009,07,12,16,34,17.50
2009,07,12,16,35,17.60
2009,07,12,16,36,22.50
2009,07,12,16,37,23.50
2009,07,12,16,38,16.90
2009,07,12,16,39,16.90
2009,07,12,16,40,16.70
2009,07,12,16,41,14.70
2009,07,12,16,42,16.60
2009,07,12,16,43,14.40
2009,07,12,16,44,19.60
2009,07,12,16,45,17.60
2009,07,12,16,46,17.40
2009,07,12,16,47,22.40
2009,07,12,16,48,15.20
2009,07,12,16,49,23.50
2009,07,12,16,50,19.30
2009,07,12,16,51,20.70
2009,07,12,16,52,17.70
2009,07,12,16,53,17.60
2009,07,12,16,54,20.50
2009,07,12,16,55,19.70
2009,07,12,16,56,13.60
2009,07,12,16,57,11.10
2009,07,12,16,58,17.80
2009,07,12,16,59,22.40
2009,07,12,17,00,19.20
2009,07,12,17,01,16.70
2009,07,12,17,02,18.60
2009,07,12,17,03,21.90
2009,07,12,17,04,20.90
2009,07,12,17,05,22.50
2009,07,12,17,06,21.60
2009,07,12,17,07,24.30
2009,07,12,17,08,26.00
2009,07,12,17,09,22.20
2009,07,12,17,10,12.90
2009,07,12,17,11,20.40
2009,07,12,17,12,15.50
2009,07,12,17,13,19.50
2009,07,12,17,14,21.10
2009,07,12,17,15,16.50
2009,07,12,17,16,21.10
2009,07,12,17,17,20.00
2009,07,12,17,18,15.70
2009,07,12,17,19,14.60
2009,07,12,17,20,20.50
2009,07,12,17,21,18.50
2009,07,12,17,22,15.00
2009,07,12,17,23,21.50
2009,07,12,17,24,22.60
2009,07,12,17,25,20.00
2009,07,12,17,26,22.70
2009,07,12,17,27,18.80
2009,07,12,17,28,24.60
2009,07,12,17,29,26.50
2009,07,12,17,30,20.00
2009,07,12,17,31,25.00
2009,07,12,17,32,10.90
2009,07,12,17,33,21.80
2009,07,12,17,34,24.90
2009,07,12,17,35,21.10
2009,07,12,17,36,17.40
2009,07,12,17,37,18.60
2009,07,12,17,38,14.80
2009,07,12,17,39,11.20
2009,07,12,17,40,25.20
2009,07,12,17,41,15.70
2009,07,12,17,42,27.80
2009,07,12,17,43,24.10
2009,07,12,17,44,23.60
2009,07,12,17,45,20.20
2009,07,12,17,46,20.90
2009,07,12,17,47,22.50
2009,07,12,17,48,18.30
2009,07,12,17,49,20.00
2009,07,12,17,50,17.20
2009,07,12,17,51,26.40